Terminal Aerodrome Forecast
Issued by NWS Des Moines, IA

Home | Current Version | Previous Version | Text Only | Print | Product List | Glossary On
Versions: 1 2 3 4 5 6 7 8 9 10 11 12 13 14 15 16 17 18 19 20 21 22 23 24 25 26 27 28 29 30 31 32 33 34 35 36 37 38 39 40 41 42 43 44 45 46 47
000
FTUS43 KDMX 270536
TAFALO
TAF
KALO 270536Z 2706/2806 33005KT 3SM -DZSN BR SCT008 OVC025
     FM270900 30009KT 3SM -SN BR BKN006 OVC020
     FM271300 29013G19KT P6SM BKN012=

USA.gov is the U.S. government's official web portal to all federal, state and local government web resources and services.